sat.trackr.live / text

‹ back to catalog

TJS-22

NORAD 66990 · 2025-290A

PAYLOAD ACTIVE UNKNOWN

§ Identity

Operator
Country
PRC
Launch date
2025-12-09
Launch site
XICLF
Launch vehicle
Mass (kg)
RCS (m²)

Purposes: comms

External: N2YO · Heavens-Above · Gunter

§ Orbital elements

Epoch: 2026-09-20T03:33:03.793248Z

Period
1,436.08 min
Inclination
1.3059°
Eccentricity
0.0004137
Mean motion
1.00273060 rev/d
Perigee alt
35,768.8 km
Apogee alt
35,803.7 km
Semi-major
42,164.4 km
B*
0.0000e+0
RAAN
288.3600°
Arg perigee
323.2223°
Mean anomaly
227.2033°
Rev number
297

§ Raw data

TJS-221 66990U 25290A   26263.14796057 -.00000012  00000+0  00000+0 0  99982 66990   1.3059 288.3600 0004137 323.2223 227.2033  1.00273060  2975

JSON: /api/v1/satellites/66990 · /tle

For live sub-satellite position, see the globe view (requires WebGL).

§ Visibility from observer

Set your observer location to see the next 7 days of passes ≥ 10°. The values pass through the URL so the page stays shareable.

No JS? Fill the form by hand. The geolocation button needs JavaScript.